Tracking 18984 objects as of 24-Feb-2018
HD Live streaming from Space Station
objects crossing your sky now

OSCAR 25

Track OSCAR 25 now!
10-day predictions
OSCAR 25 is classified as:


NORAD ID: 19419
Int'l Code: 1988-074A
Perigee: 1,034.6 km
Apogee: 1,182.0 km
Inclination: 90.0 °
Period: 107.3 minutes
Semi major axis: 7479 km
RCS: 1.4853 m2 (large)
Launch date: August 25, 1988
Source: United States (US)
Launch site: AIR FORCE WESTERN TEST RANGE (AFWTR)
aabbcc
Your satellite tracking list
Your tracking list is empty




NASA's NSSDC Master Catalog

Two Line Element Set (TLE):
1 19419U 88074A   18054.91013510  .00000077  00000-0  11603-3 0  9997
2 19419  89.9888  18.6000 0098498  90.4223 292.1946 13.42183637444495
Source of the keplerian elements: AFSPC